VOZ664 YPPH-YPAD

Flight info

Callsign VOZ664
Flight time 2h 16m
Altitude 37000
Route PH H18 BURGU Y135 DADRU Y39 ATNAR N640 AD
Aircraft B38M/M-SDE1FGHILORVWXY/HB1

Departure

Time 2025-09-05 00:54
Airport Perth International Airport (YPPH)

Arrival

Time 2025-09-05 03:10
Airport Adelaide International Airport (YPAD)
Time Latitude Longitude Altitude Speed Heading
2025-09-05 00:29 -31.94005 115.96981 68 ft 0 kts 204°
2025-09-05 00:41 -31.94003 115.96982 68 ft 1 kts 204°
2025-09-05 00:41 -31.93969 115.96990 60 ft 2 kts 189°
2025-09-05 00:42 -31.93939 115.97005 63 ft 3 kts 240°
2025-09-05 00:42 -31.93937 115.97048 68 ft 2 kts 284°
2025-09-05 00:42 -31.93939 115.97058 68 ft 1 kts 284°
2025-09-05 00:46 -31.93930 115.97016 67 ft 5 kts 284°
2025-09-05 00:46 -31.93923 115.96915 63 ft 8 kts 247°
2025-09-05 00:47 -31.94019 115.96859 64 ft 9 kts 192°
2025-09-05 00:47 -31.94161 115.96819 66 ft 12 kts 195°
2025-09-05 00:48 -31.94448 115.96736 61 ft 16 kts 193°
2025-09-05 00:49 -31.94682 115.96666 64 ft 19 kts 194°
2025-09-05 00:49 -31.94814 115.96628 63 ft 20 kts 194°
2025-09-05 00:49 -31.95099 115.96539 65 ft 22 kts 202°
2025-09-05 00:50 -31.95347 115.96470 67 ft 16 kts 193°
2025-09-05 00:51 -31.95673 115.96378 73 ft 16 kts 194°
2025-09-05 00:51 -31.95904 115.96302 72 ft 19 kts 217°
2025-09-05 00:51 -31.95909 115.96179 75 ft 15 kts 284°
2025-09-05 00:52 -31.95802 115.95989 70 ft 16 kts 10°
2025-09-05 00:53 -31.93862 115.96560 221 ft 171 kts 14°
2025-09-05 00:53 -31.91539 115.97579 1904 ft 193 kts 34°
2025-09-05 00:54 -31.91129 116.01189 2996 ft 276 kts 114°
2025-09-05 00:54 -31.93708 116.04833 4622 ft 302 kts 129°
2025-09-05 00:55 -31.96404 116.08695 6577 ft 309 kts 129°
2025-09-05 00:55 -31.99152 116.12709 8390 ft 318 kts 128°
2025-09-05 00:55 -32.00545 116.14757 9313 ft 322 kts 128°
2025-09-05 00:56 -32.03409 116.18991 10586 ft 346 kts 128°
2025-09-05 00:57 -32.08097 116.25956 12527 ft 371 kts 129°
2025-09-05 00:57 -32.11350 116.30756 14023 ft 378 kts 129°
2025-09-05 00:58 -32.14668 116.35650 15346 ft 386 kts 129°
2025-09-05 00:58 -32.18052 116.40649 16613 ft 394 kts 129°
2025-09-05 00:59 -32.21457 116.45780 17859 ft 401 kts 123°
2025-09-05 00:59 -32.22904 116.48617 18398 ft 405 kts 122°
2025-09-05 00:59 -32.25871 116.54302 19362 ft 413 kts 123°
2025-09-05 01:00 -32.28951 116.60114 20341 ft 421 kts 123°
2025-09-05 01:01 -32.33673 116.69014 21813 ft 431 kts 123°
2025-09-05 01:01 -32.36883 116.75076 22725 ft 439 kts 123°
2025-09-05 01:02 -32.40146 116.81250 23561 ft 446 kts 123°
2025-09-05 01:02 -32.41803 116.84386 23846 ft 452 kts 123°
2025-09-05 01:02 -32.45169 116.90769 24464 ft 461 kts 124°
2025-09-05 01:05 -32.58221 117.22816 26961 ft 506 kts 108°
2025-09-05 01:06 -32.66118 117.51314 28816 ft 535 kts 107°
2025-09-05 01:08 -32.75573 117.85817 30628 ft 562 kts 107°
2025-09-05 01:10 -32.85325 118.21847 32141 ft 585 kts 107°
2025-09-05 01:13 -32.96482 118.63977 33866 ft 603 kts 98°
2025-09-05 01:14 -32.97813 118.98595 35345 ft 597 kts 86°
2025-09-05 01:17 -32.98757 119.41588 36821 ft 600 kts 86°
2025-09-05 01:18 -32.99410 119.76207 36817 ft 597 kts 86°
2025-09-05 01:20 -33.00040 120.15803 36790 ft 598 kts 86°
2025-09-05 01:23 -33.01848 120.60332 36865 ft 600 kts 98°
2025-09-05 01:25 -33.07674 120.99604 36794 ft 603 kts 99°
2025-09-05 01:27 -33.13390 121.38906 36826 ft 602 kts 98°
2025-09-05 01:29 -33.18979 121.78225 36832 ft 600 kts 98°
2025-09-05 01:31 -33.25680 122.17198 36826 ft 599 kts 101°
2025-09-05 01:33 -33.32344 122.56217 36875 ft 599 kts 101°
2025-09-05 01:34 -33.38064 122.90341 36800 ft 598 kts 102°
2025-09-05 01:37 -33.45256 123.34136 36826 ft 596 kts 101°
2025-09-05 01:38 -33.50750 123.68287 36835 ft 596 kts 101°
2025-09-05 01:41 -33.57670 124.12221 36825 ft 595 kts 101°
2025-09-05 01:42 -33.62925 124.46311 36888 ft 595 kts 101°
2025-09-05 01:45 -33.69552 124.90222 36831 ft 593 kts 101°
2025-09-05 01:47 -33.75297 125.29213 36813 ft 592 kts 101°
2025-09-05 01:48 -33.80205 125.63203 36829 ft 591 kts 101°
2025-09-05 01:51 -33.86380 126.06973 36822 ft 589 kts 101°
2025-09-05 01:53 -33.91728 126.45852 36826 ft 588 kts 101°
2025-09-05 01:54 -33.96296 126.79829 36807 ft 586 kts 101°
2025-09-05 01:57 -34.02006 127.23366 36817 ft 584 kts 101°
2025-09-05 01:58 -34.06333 127.57207 36817 ft 584 kts 101°
2025-09-05 02:01 -34.11751 128.00657 36824 ft 581 kts 101°
2025-09-05 02:02 -34.15832 128.34316 36828 ft 580 kts 101°
2025-09-05 02:05 -34.20952 128.77663 36835 ft 579 kts 101°
2025-09-05 02:07 -34.25173 129.14457 36836 ft 576 kts 101°
2025-09-05 02:09 -34.29446 129.52757 36861 ft 573 kts 101°
2025-09-05 02:11 -34.33573 129.90845 36881 ft 571 kts 101°
2025-09-05 02:12 -34.37079 130.24128 36895 ft 568 kts 101°
2025-09-05 02:15 -34.41429 130.66702 36916 ft 564 kts 100°
2025-09-05 02:17 -34.45146 131.04324 36946 ft 561 kts 100°
2025-09-05 02:19 -34.48743 131.41847 36973 ft 558 kts 100°
2025-09-05 02:21 -34.52198 131.79189 36991 ft 555 kts 100°
2025-09-05 02:23 -34.55532 132.16392 37011 ft 555 kts 100°
2025-09-05 02:25 -34.58737 132.53452 37033 ft 551 kts 99°
2025-09-05 02:26 -34.61447 132.85824 37040 ft 548 kts 99°
2025-09-05 02:29 -34.64783 133.27236 37049 ft 545 kts 99°
2025-09-05 02:30 -34.67265 133.59243 37084 ft 542 kts 98°
2025-09-05 02:32 -34.69985 133.95674 37093 ft 538 kts 98°
2025-09-05 02:35 -34.72900 134.36449 37124 ft 536 kts 98°
2025-09-05 02:37 -34.75364 134.72508 37151 ft 534 kts 98°
2025-09-05 02:39 -34.77703 135.08390 37159 ft 531 kts 97°
2025-09-05 02:41 -34.79935 135.44292 37173 ft 531 kts 97°
2025-09-05 02:42 -34.81797 135.75655 36345 ft 533 kts 97°
2025-09-05 02:45 -34.82346 136.15799 30941 ft 508 kts 87°
2025-09-05 02:46 -34.80747 136.44893 27257 ft 473 kts 85°
2025-09-05 02:48 -34.79429 136.67956 24557 ft 433 kts 84°
2025-09-05 02:49 -34.78807 136.78613 23217 ft 410 kts 84°
2025-09-05 02:49 -34.78406 136.85380 22426 ft 393 kts 84°
2025-09-05 02:50 -34.78017 136.91885 21668 ft 378 kts 84°
2025-09-05 02:50 -34.77639 136.98152 20935 ft 366 kts 84°
2025-09-05 02:50 -34.77452 137.01233 20571 ft 364 kts 84°
2025-09-05 02:51 -34.77079 137.07338 19842 ft 360 kts 84°
2025-09-05 02:51 -34.76709 137.13348 19126 ft 357 kts 84°
2025-09-05 02:52 -34.76336 137.19355 18384 ft 355 kts 84°
2025-09-05 02:53 -34.75778 137.28256 17264 ft 348 kts 84°
2025-09-05 02:53 -34.75409 137.34092 16559 ft 344 kts 84°
2025-09-05 02:53 -34.75287 137.36003 16324 ft 342 kts 84°
2025-09-05 02:54 -34.74921 137.41736 15636 ft 338 kts 83°
2025-09-05 02:54 -34.74556 137.47404 14954 ft 334 kts 83°
2025-09-05 02:55 -34.74012 137.55791 13922 ft 329 kts 83°
2025-09-05 02:56 -34.73652 137.61320 13190 ft 326 kts 82°
2025-09-05 02:56 -34.73518 137.64060 12827 ft 325 kts 91°
2025-09-05 02:57 -34.76126 137.71602 11822 ft 321 kts 115°
2025-09-05 02:57 -34.78132 137.76416 11155 ft 318 kts 115°
2025-09-05 02:57 -34.79138 137.78833 10683 ft 322 kts 115°
2025-09-05 02:58 -34.81165 137.83709 10002 ft 319 kts 115°
2025-09-05 02:58 -34.83137 137.88455 9343 ft 308 kts 114°
2025-09-05 02:59 -34.85027 137.93011 8696 ft 295 kts 114°
2025-09-05 02:59 -34.86839 137.97387 8094 ft 283 kts 115°
2025-09-05 03:00 -34.88573 138.01575 7500 ft 271 kts 114°
2025-09-05 03:00 -34.90276 138.05700 6947 ft 278 kts 115°
2025-09-05 03:01 -34.92024 138.09937 6338 ft 280 kts 115°
2025-09-05 03:01 -34.93760 138.14149 5708 ft 279 kts 115°
2025-09-05 03:02 -34.95493 138.18357 5099 ft 277 kts 114°
2025-09-05 03:03 -34.98046 138.24572 4345 ft 263 kts 114°
2025-09-05 03:03 -34.98849 138.26524 4225 ft 252 kts 114°
2025-09-05 03:04 -35.02041 138.31225 3769 ft 228 kts 129°
2025-09-05 03:04 -35.03111 138.32603 3629 ft 221 kts 129°
2025-09-05 03:05 -35.05303 138.37251 2976 ft 207 kts 70°
2025-09-05 03:05 -35.03794 138.40005 2499 ft 187 kts 49°
2025-09-05 03:06 -35.02287 138.42281 2055 ft 158 kts 49°
2025-09-05 03:06 -35.01008 138.44179 1566 ft 132 kts 49°
2025-09-05 03:07 -34.99913 138.45798 1361 ft 121 kts 49°
2025-09-05 03:07 -34.99375 138.46584 1207 ft 122 kts 50°
2025-09-05 03:07 -34.98291 138.48161 771 ft 120 kts 51°
2025-09-05 03:08 -34.97198 138.49771 518 ft 124 kts 50°
2025-09-05 03:09 -34.95574 138.52129 44 ft 115 kts 52°
2025-09-05 03:09 -34.94858 138.53169 28 ft 37 kts 50°
2025-09-05 03:10 -34.94632 138.53499 28 ft 24 kts 49°
2025-09-05 03:10 -34.94542 138.53467 28 ft 16 kts 308°
2025-09-05 03:11 -34.94354 138.53565 28 ft 17 kts 50°
2025-09-05 03:11 -34.94260 138.53660 28 ft 18 kts 357°
2025-09-05 03:11 -34.94144 138.53532 28 ft 4 kts 320°